Terminal Aerodrome Forecast
Issued by NWS

Home | Current Version | Previous Version | Text Only | Print | Product List | Glossary Off
Versions: 1 2 3 4 5 6 7 8 9 10 11 12 13 14 15 16 17 18 19 20 21 22 23 24 25 26 27 28 29 30 31 32 33 34 35 36 37 38 39 40 41 42 43 44 45 46 47 48 49 50

000
FTUS43 KLOT 180600 AAA
TAFGYY
TAF AMD
KGYY 180618Z 1806/1906 03008KT P6SM OVC005
     FM181400 VRB03KT 6SM BR BKN006
     FM181600 VRB03KT P6SM BKN020
     FM181900 06007KT P6SM SCT030 BKN200
     FM182100 03009KT P6SM SCT040 BKN200
     FM190100 19006KT P6SM BKN050 BKN100
     FM190500 20008KT P6SM SHRA VCTS SCT035CB BKN050=

USA.gov is the U.S. government's official web portal to all federal, state and local government web resources and services.